Fort Belvoir, VA

6:04 PM EDT on October 01, 2016 (GMT -0400)
Davison Army Air Field

Weather History for KDAA - March, 2014

Change the Weather History Date:

Wednesday, March 12, 2014

  Actual Average Record
Temperature  
Mean Temperature 50 °F -  
Max Temperature 66 °F 51 °F 72 °F (2012)
Min Temperature 34 °F 32 °F 23 °F (1998)
Degree Days  
Heating Degree Days 15    
Moisture  
Dew Point 44 °F    
Average Humidity 72    
Maximum Humidity 89    
Minimum Humidity 46    
Precipitation  
Precipitation 0.41 in - - ()
Sea Level Pressure  
Sea Level Pressure 29.29 in    
Wind  
Wind Speed 6 mph (WSW)    
Max Wind Speed 33 mph    
Max Gust Speed 51 mph    
Visibility 8 miles    
Events Rain    
Averages and records for this station are not official NWS values.
T = Trace of Precipitation, MM = Missing Value Source: NWS Daily Summary

Daily Weather History Graph

Daily Weather History Graph

Search for Another Location

Airport or City:

Trip Planner

Search our weather history database for the weather conditions in past years. The results will help you decide how hot, cold, wet, or windy it might be!

Date:

Astronomy

Mar. 12, 2014 Rise Set
Actual Time 7:24 AM EDT 7:12 PM EDT
Civil Twilight 6:58 AM EDT 7:39 PM EDT
Nautical Twilight 6:27 AM EDT 8:10 PM EDT
Astronomical Twilight 5:56 AM EDT 8:41 PM EDT
Moon 3:43 PM EDT (3/12) 4:53 AM EDT (3/12)
Length of Visible Light 12h 41m
Length of Day
11h 48m
Waxing Gibbous, 85% of the Moon is Illuminated
Mar 12
Waxing Gibbous
Mar 16
Full
Mar 23
Last Quarter
Mar 30
New
Apr 7
First Quarter

Hourly Weather History & Observations

Time (EDT) Temp. Windchill Dew Point Humidity Pressure Visibility Wind Dir Wind Speed Gust Speed Precip Events Conditions
12:58 AM 42.6 °F - 37.8 °F 83% 29.66 in 10.0 mi Calm Calm - N/A   Clear
1:58 AM 42.6 °F - 37.2 °F 81% 29.63 in 10.0 mi Calm Calm - N/A   Clear
2:58 AM 41.2 °F - 37.2 °F 86% 29.60 in 10.0 mi Calm Calm - N/A   Clear
3:58 AM 40.5 °F - 36.7 °F 86% 29.55 in 10.0 mi Calm Calm - N/A   Clear
4:58 AM 40.3 °F - 36.9 °F 88% 29.54 in 10.0 mi Calm Calm - N/A   Clear
5:58 AM 40.8 °F - 37.0 °F 86% 29.52 in 10.0 mi Calm Calm - N/A   Clear
6:58 AM 39.7 °F - 36.3 °F 88% 29.52 in 10.0 mi NW 2.3 mph - N/A   Mostly Cloudy
7:58 AM 40.6 °F - 37.6 °F 89% 29.48 in 10.0 mi Calm Calm - N/A   Partly Cloudy
8:58 AM 45.9 °F - 39.0 °F 77% 29.47 in 10.0 mi Calm Calm - N/A   Partly Cloudy
9:58 AM 51.4 °F - 38.3 °F 61% 29.43 in 10.0 mi Variable 4.6 mph - N/A   Clear
10:14 AM 51.8 °F - 39.2 °F 62% 29.40 in 10.0 mi South 2.3 mph - N/A   Scattered Clouds
10:23 AM 51.8 °F - 39.2 °F 62% 29.40 in 10.0 mi Variable 3.5 mph - N/A   Mostly Cloudy
10:58 AM 54.0 °F - 38.8 °F 57% 29.38 in 10.0 mi Variable 4.6 mph - 0.02 in   Mostly Cloudy
11:58 AM 59.9 °F - 38.8 °F 46% 29.33 in 10.0 mi SSW 8.1 mph - N/A   Scattered Clouds
12:58 PM 61.7 °F - 43.2 °F 51% 29.29 in 10.0 mi Variable 5.8 mph - N/A   Overcast
1:58 PM 65.7 °F - 49.8 °F 57% 29.22 in 10.0 mi South 10.4 mph 26.5 mph N/A   Mostly Cloudy
2:58 PM 64.0 °F - 53.2 °F 68% 29.18 in 10.0 mi SSW 10.4 mph - N/A   Overcast
3:03 PM 64.4 °F - 53.6 °F 68% 29.17 in 10.0 mi South 8.1 mph - N/A   Overcast
3:08 PM 64.4 °F - 53.6 °F 68% 29.16 in 10.0 mi South 8.1 mph - N/A Rain Light Rain
3:15 PM 64.4 °F - 53.6 °F 68% 29.16 in 10.0 mi South 10.4 mph - N/A   Overcast
3:58 PM 63.3 °F - 53.6 °F 71% 29.14 in 10.0 mi Variable 6.9 mph - 0.00 in   Overcast
4:58 PM 64.6 °F - 54.9 °F 71% 29.11 in 10.0 mi SSW 10.4 mph - N/A   Overcast
5:58 PM 64.9 °F - 55.4 °F 71% 29.09 in 10.0 mi Variable 5.8 mph - N/A   Overcast
6:04 PM 64.4 °F - 55.4 °F 73% 29.08 in 10.0 mi SW 5.8 mph - N/A Rain Light Rain
6:09 PM 64.4 °F - 55.4 °F 73% 29.08 in 10.0 mi SW 10.4 mph - N/A Rain Light Rain
6:29 PM 62.6 °F - 57.2 °F 82% 29.10 in 1.0 mi WSW 18.4 mph 28.8 mph N/A Rain Heavy Rain
6:34 PM 60.8 °F - 55.4 °F 82% 29.10 in 0.8 mi WSW 13.8 mph 28.8 mph N/A Rain Heavy Rain
6:39 PM 59.0 °F - 53.6 °F 82% 29.10 in 1.5 mi West 15.0 mph 25.3 mph N/A Rain Heavy Rain
6:44 PM 59.0 °F - 53.6 °F 82% 29.10 in 2.0 mi West 12.7 mph 24.2 mph N/A Rain Rain
6:49 PM 59.0 °F - 53.6 °F 82% 29.10 in 3.0 mi West 12.7 mph 25.3 mph N/A Rain Rain
6:58 PM 58.3 °F - 53.1 °F 83% 29.12 in 4.0 mi West 11.5 mph 28.8 mph 0.27 in Rain Heavy Rain
7:03 PM 57.2 °F - 53.6 °F 88% 29.10 in 1.2 mi West 8.1 mph 26.5 mph N/A Rain Heavy Rain
7:08 PM 57.2 °F - 53.6 °F 88% 29.11 in 1.5 mi WSW 6.9 mph 26.5 mph N/A Rain Light Rain
7:13 PM 57.2 °F - 53.6 °F 88% 29.11 in 7.0 mi West 5.8 mph - N/A Rain Light Rain
7:17 PM 57.2 °F - 53.6 °F 88% 29.12 in 10.0 mi West 4.6 mph - N/A   Mostly Cloudy
7:58 PM 59.2 °F - 40.3 °F 50% 29.18 in 10.0 mi WNW 19.6 mph 38.0 mph 0.11 in   Overcast
8:58 PM 48.2 °F - 32.0 °F 54% 29.29 in 10.0 mi WNW 32.2 mph 42.6 mph N/A   Clear
9:33 PM 41.0 °F 29.5 °F 24.8 °F 53% 29.38 in 10.0 mi WNW 32.2 mph 41.4 mph N/A   Squalls
9:58 PM 38.5 °F 25.8 °F 22.5 °F 53% 29.41 in 10.0 mi WNW 33.4 mph 50.6 mph 0.01 in   Partly Cloudy
10:58 PM 35.6 °F 22.3 °F 19.9 °F 53% 29.47 in 10.0 mi WNW 31.1 mph 43.7 mph N/A   Scattered Clouds
11:58 PM 34.3 °F 22.3 °F 18.7 °F 53% 29.52 in 10.0 mi NW 23.0 mph 38.0 mph N/A   Partly Cloudy